カタログに戻る

COSMOS 886 DEB

運用中UNKNOWN
NORAD 9721·DEBRIS·🇷🇺 Russia

打ち上げ Dec 27, 1976 から Baikonur Cosmodrome

Loading…

次のパス (今後24時間)

TLE

最新Source: Space-Track

元期: Sep 14, 2026, 10:24 UTC

1 09721U 76126S   26257.43398529  .00000363  00000-0  15851-3 0  9991
2 09721  65.8400 254.8327 1066526 333.1123  21.8204 12.77464315307767

AllMySatでCOSMOS 886 DEBをリアルタイム追跡

Download on the App Store